Terminal Aerodrome Forecast
Issued by NWS Green Bay, WI

Home | Current Version | Previous Version | Graphics & Text | Print | Product List | Glossary On
Versions: 1 2 3 4 5 6 7 8 9 10 11 12 13 14 15 16 17 18 19 20 21 22 23 24 25 26 27 28 29 30 31 32 33 34 35 36 37 38 39 40 41 42 43 44 45 46 47 48 49 50
523
FTUS43 KGRB 151441 AAB
TAFGRB
TAF AMD
KGRB 151441Z 1515/1612 22010KT 3SM -RADZ BR OVC008
      TEMPO 1515/1518 1 1/2SM -RADZ BR BKN008
     FM151800 28012G22KT P6SM BKN010
     FM152100 28015G25KT P6SM BKN030
     FM160200 29014G24KT P6SM BKN040=

USA.gov is the U.S. government's official web portal to all federal, state and local government web resources and services.